Probability
0 0 1 4 6 6 5 4 4 5 5 6 6 5 5 4 3 3 2 1 0 0 0 0 0 0 0 0 0 0 0 0 0 0 0 0 0 0 0 0 0 0 0
0 0 1 3 5 6 5 4 5 5 5 6 6 5 5 4 3 3 2 1 0 0 0 0 0 0 0 0 0 0 0 0 0 0 0 0 0 0 0 0 0 0 0
0 0 1 2 4 6 4 4 6 7 5 4 4 4 5 4 4 3 3 1 0 0 0 0 0 0 0 0 0 0 0 0 0 0 0 0 0 0 0 0 0 0 0
0 0 0 1 3 6 6 7 7 7 5 3 2 3 4 4 3 3 3 2 1 0 0 0 0 0 0 0 0 0 0 0 0 0 0 0 0 0 0 0 0 0 0
0 0 1 2 4 7 10 10 9 8 6 4 3 3 3 4 3 3 3 3 2 1 0 0 0 0 0 0 0 0 0 0 0 0 0 0 0 0 0 0 0 0 0
0 0 2 4 6 8 10 11 10 9 9 8 5 3 2 3 4 3 4 4 4 4 2 0 0 0 0 0 0 0 0 0 0 0 0 0 0 0 0 0 0 0 0
0 0 1 4 6 8 9 10 10 11 12 11 7 3 2 4 4 4 4 4 5 5 3 1 1 0 0 0 0 0 0 0 0 0 0 0 0 0 0 0 0 0 0
0 0 0 2 4 6 8 9 11 13 12 11 8 4 3 4 5 5 3 2 3 4 4 3 2 1 0 0 0 0 0 0 0 0 1 1 1 1 1 1 0 0 0
0 0 0 1 2 4 7 9 10 11 11 10 8 5 3 3 5 4 2 1 1 2 3 3 2 1 0 0 0 0 0 0 1 2 2 2 3 3 4 3 2 1 1
0 0 0 0 1 2 5 7 8 9 9 9 7 5 2 1 2 2 2 0 0 0 1 2 2 1 0 0 0 0 0 0 3 4 4 3 3 4 5 5 5 4 4
0 0 0 0 0 1 4 6 7 9 9 8 6 5 3 1 0 1 1 0 0 0 0 1 2 2 1 1 1 0 0 0 2 4 4 3 4 4 4 6 7 7 7
0 0 0 0 0 0 2 5 8 9 8 7 6 5 3 1 0 0 0 0 0 0 0 1 2 3 2 1 1 0 0 0 1 2 3 4 4 4 4 6 8 9 9
0 0 0 0 0 0 1 3 6 7 7 6 5 4 3 2 1 0 0 0 0 0 0 0 1 3 3 2 1 0 0 0 1 2 3 3 4 4 5 6 8 9 10
0 0 0 0 0 0 0 1 4 5 5 4 4 3 3 3 2 1 1 1 0 0 0 0 1 2 3 2 2 2 2 1 1 1 2 2 2 3 4 5 7 9 9
0 0 0 0 0 0 0 1 2 4 4 3 3 3 3 3 3 2 2 1 1 1 1 0 0 1 2 2 2 2 3 2 2 1 1 1 1 1 2 3 4 6 7
0 0 0 0 0 0 0 0 1 2 3 3 3 3 3 3 3 3 1 1 2 2 2 1 0 1 2 1 1 1 2 2 1 1 1 0 0 0 1 1 1 2 3
0 0 0 0 0 0 0 0 0 1 2 3 3 3 3 3 3 2 1 0 1 2 2 1 0 1 2 1 0 0 1 1 1 2 2 1 1 0 0 0 1 1 1
0 0 0 0 0 0 0 1 1 0 1 3 3 3 3 3 3 3 1 0 0 1 1 1 1 2 2 1 0 0 0 1 2 3 3 3 2 1 0 0 1 2 2
0 0 0 0 0 0 1 2 2 1 1 3 3 3 3 3 3 3 2 1 1 1 1 2 2 3 3 1 0 0 1 2 3 3 3 3 2 1 0 0 1 2 3
0 0 0 0 0 0 1 2 3 3 3 3 3 3 3 3 3 3 3 3 2 2 3 3 3 4 4 1 0 0 1 2 2 2 2 1 1 0 0 0 0 1 2
0 0 0 0 0 0 1 3 3 3 3 2 2 2 2 2 2 2 2 2 2 2 2 2 3 3 3 1 0 0 1 1 1 1 1 0 0 0 0 0 0 1 1
0 0 0 0 0 1 2 3 3 2 1 1 1 1 1 1 1 1 1 1 1 1 1 1 1 3 3 2 1 0 0 0 0 0 0 0 0 0 0 0 0 0 0
0 0 0 0 0 1 2 3 2 1 0 0 0 0 0 0 0 0 0 0 0 0 0 0 1 3 3 2 1 0 0 0 0 0 0 0 0 0 0 0 0 0 0
0 0 0 0 0 1 2 2 1 0 0 0 0 0 0 0 0 0 0 0 0 0 0 1 2 3 3 2 1 0 0 0 0 0 0 0 0 0 0 0 0 0 0
0 0 0 0 0 0 1 1 0 0 0 0 0 0 0 0 0 0 0 0 0 0 0 1 2 3 3 2 1 0 0 0 0 0 0 0 0 0 0 0 0 0 0
0 0 0 0 0 0 0 0 0 0 0 0 0 0 0 0 0 0 0 0 0 0 0 1 2 3 3 1 0 0 0 0 0 0 0 0 0 0 0 0 0 0 0
Wind_Speed
4 4 4 4 4 3 3 4 4 4 3 2 2 2 2 1 1 1 1 1 1 1 2 0 1 0 1 1 1 1 1 1 1 1 1 2 2 2 2 2 2 3 4
4 4 4 4 4 4 4 4 4 3 3 2 1 1 1 1 1 1 1 1 1 1 1 1 1 1 1 1 1 1 0 1 0 1 0 1 2 2 1 1 1 2 2
4 5 4 4 4 4 4 3 3 3 3 3 1 1 1 1 2 1 1 1 0 1 1 1 1 1 1 0 0 1 1 1 0 1 2 1 1 1 1 1 1 1 1
4 4 4 4 4 4 3 3 3 3 3 3 2 3 2 1 1 1 1 1 1 1 1 1 1 1 1 1 1 1 1 2 1 1 1 2 1 2 0 1 1 1 1
4 4 5 4 4 3 3 3 3 3 3 3 3 3 3 2 1 1 1 1 1 1 1 1 1 1 1 1 1 1 2 2 2 1 1 1 1 3 2 1 1 1 1
4 4 4 4 3 3 3 3 3 3 3 3 4 4 3 2 1 1 1 1 1 1 1 2 2 2 2 2 2 2 2 2 2 2 2 2 2 2 2 2 2 1 0
2 3 4 4 3 4 4 4 4 3 3 3 3 3 4 3 3 2 2 2 1 1 2 2 2 2 2 2 2 2 2 3 3 3 3 2 2 2 3 3 2 2 1
1 2 3 3 3 3 3 4 4 3 3 2 2 3 3 2 2 2 2 2 2 2 2 2 2 2 3 2 2 2 3 3 3 4 3 3 2 2 3 3 3 3 2
1 0 1 2 3 3 3 3 4 3 3 3 2 2 3 2 2 3 2 2 2 2 3 3 3 3 3 3 3 3 3 3 3 4 4 4 3 3 3 3 3 4 3
1 1 1 1 2 2 2 3 3 3 3 2 2 2 2 3 3 3 3 2 2 2 3 3 3 3 3 3 3 3 3 3 3 3 4 4 3 3 3 3 3 4 4
1 1 1 1 1 2 2 3 3 3 2 2 2 2 2 3 3 3 3 3 3 3 3 3 3 3 3 3 3 3 3 4 4 4 4 4 4 4 3 4 4 4 4
1 2 1 2 1 1 2 2 3 3 3 3 3 3 3 3 3 3 4 4 4 3 3 3 4 4 4 4 4 4 4 4 5 4 5 5 3 5 4 4 5 4 5
1 1 1 1 1 0 1 1 2 3 3 3 3 4 3 3 4 4 4 4 4 4 4 4 4 4 4 4 4 5 5 5 5 5 5 5 5 5 4 5 5 4 4
0 1 1 1 1 1 1 1 2 2 3 3 4 4 4 4 4 4 4 5 5 5 5 5 5 5 5 5 5 5 5 5 5 5 5 5 5 6 5 5 5 5 5
1 1 1 2 2 2 2 2 2 2 3 3 4 4 4 4 4 4 5 5 5 5 5 5 5 5 5 4 5 5 6 6 6 6 6 6 5 5 5 4 5 5 5
2 2 2 2 2 3 3 3 3 3 3 4 4 4 4 4 4 5 5 5 5 5 5 5 6 6 5 3 4 6 7 7 7 6 6 6 6 6 7 7 6 6 6
3 3 3 3 3 4 4 4 4 4 4 4 4 4 4 4 5 5 5 5 6 6 6 6 6 7 6 4 6 7 7 7 7 7 7 5 5 6 6 7 8 8 8
3 3 3 4 4 4 4 4 3 3 4 4 4 4 4 5 5 5 5 6 5 5 5 6 7 7 6 5 6 7 9 8 8 8 8 7 7 5 6 6 7 7 7
4 4 4 4 4 4 4 4 3 3 4 4 5 4 5 5 5 5 6 5 5 5 6 6 7 7 6 5 6 7 7 7 8 8 7 8 8 4 5 7 7 6 5
4 4 4 4 4 4 3 3 4 4 4 4 5 5 5 5 5 5 5 5 4 5 5 5 6 7 7 5 5 7 6 7 7 6 7 7 7 5 6 7 7 7 5
4 4 4 4 4 4 4 4 4 4 5 4 5 4 4 4 4 5 4 4 4 4 5 5 5 6 6 5 5 6 6 6 6 5 5 4 5 6 7 7 6 5 5
5 5 4 4 4 4 4 4 4 5 4 4 4 4 4 4 4 4 4 4 4 4 5 5 5 4 4 4 4 5 6 7 6 6 5 4 4 6 7 6 5 4 4
5 5 4 4 4 4 4 5 5 5 4 4 4 4 5 4 4 4 4 4 4 4 4 4 4 4 4 3 3 5 6 6 6 5 4 4 5 6 6 6 6 5 4
5 5 5 5 5 5 5 5 5 5 5 5 5 4 4 4 4 4 4 4 4 4 4 4 4 4 4 3 3 3 3 4 4 4 4 4 5 5 4 4 4 4 3
5 5 5 5 6 5 5 5 5 5 5 5 5 5 4 5 5 4 3 4 4 4 4 4 4 4 5 4 5 5 4 4 4 4 3 3 3 3 3 3 3 3 3
5 5 6 6 6 5 5 5 5 5 5 5 5 4 4 4 3 3 3 2 3 3 4 5 6 5 4 5 5 5 5 5 5 4 4 4 4 4 3 3 3 3 3
Wind_Direction
187 177 185 185 182 180 184 172 173 170 162 165 178 178 171 175 148 124 100 105 87 80 93 96 97 101 83 49 71 86 102 88 65 126 113 108 89 70 71 54 47 57 54
188 174 184 187 192 184 192 185 183 175 170 179 192 196 189 200 137 142 135 126 138 122 111 165 147 128 108 104 84 89 310 90 59 299 243 160 150 134 102 86 46 50 61
199 180 186 189 189 190 186 187 183 175 175 177 180 175 164 199 185 184 170 180 172 190 209 225 231 189 205 166 186 195 237 244 209 320 310 299 21 49 135 104 82 45 35
207 194 188 188 188 191 188 188 178 173 177 176 192 203 214 226 240 226 179 192 188 206 237 241 254 236 237 205 215 217 236 243 231 191 301 324 357 286 225 170 120 42 14
212 205 198 194 189 186 183 184 183 179 181 193 203 235 245 246 242 248 227 233 205 219 241 258 254 246 238 242 230 223 238 233 251 253 247 253 238 267 275 264 234 201 196
207 207 201 193 184 176 178 183 192 190 192 206 212 228 240 244 241 247 256 242 211 221 231 250 252 253 246 239 238 231 231 245 245 250 247 252 255 264 261 263 267 268 227
197 191 195 193 186 178 179 184 188 191 193 211 223 231 239 244 242 245 246 259 240 219 228 233 251 253 253 245 234 232 237 233 232 241 249 252 262 276 272 271 273 274 250
190 190 191 195 192 186 188 189 189 195 195 209 232 240 229 238 246 245 247 246 259 253 236 229 243 250 247 238 228 238 237 241 234 236 242 251 253 254 258 264 267 262 241
75 186 199 195 196 195 198 196 190 192 200 213 227 244 237 233 238 243 246 247 256 270 256 235 237 239 239 240 231 238 234 241 242 242 238 243 248 250 254 255 256 266 269
63 72 96 192 204 203 207 203 198 197 197 216 229 241 251 242 239 241 241 248 252 252 257 243 236 233 234 236 238 246 249 245 241 251 251 247 249 248 246 250 253 258 268
52 60 79 121 160 185 199 199 202 210 219 226 234 237 239 250 240 238 243 251 254 246 251 253 242 237 236 235 230 242 246 250 248 242 245 247 251 247 241 242 242 245 252
50 59 76 98 118 164 213 213 211 219 229 237 238 238 242 247 246 242 244 248 251 252 252 251 244 237 238 240 239 240 244 251 257 256 254 250 240 247 248 241 239 240 244
46 71 92 95 80 25 271 243 231 235 237 239 241 239 241 249 250 248 245 246 247 249 247 247 249 243 241 242 244 245 246 248 254 257 257 256 246 242 242 242 244 244 243
332 38 32 28 10 343 305 291 275 258 252 247 247 248 249 250 251 250 249 247 247 248 247 248 250 246 242 241 245 249 250 252 253 254 255 256 255 254 249 243 245 246 245
306 328 337 346 337 327 317 307 296 285 266 258 259 259 260 260 259 253 249 247 245 247 249 250 250 249 246 247 256 256 256 256 254 253 252 255 262 277 269 259 251 250 248
307 317 320 324 320 318 320 319 311 300 282 270 271 272 264 261 261 258 252 248 245 244 248 251 250 249 247 245 256 263 259 258 257 258 256 254 245 253 253 258 264 263 257
318 310 311 318 320 321 319 313 311 301 286 280 277 273 268 263 262 262 257 249 246 245 244 248 251 252 249 231 238 249 260 260 260 262 260 258 253 246 249 242 238 241 247
324 325 322 321 320 318 317 315 311 301 297 293 284 277 269 262 263 261 259 254 249 245 246 250 252 256 252 232 237 242 251 257 257 256 259 259 256 245 252 253 248 244 235
322 327 324 319 316 317 318 313 314 315 308 303 299 286 274 268 264 262 262 260 255 252 251 253 256 256 251 233 234 243 254 255 258 258 258 259 257 243 246 249 250 250 245
325 324 322 316 314 317 312 304 306 307 308 308 304 301 287 273 265 263 264 264 258 258 258 256 256 260 263 248 239 249 255 255 256 255 254 251 255 251 233 243 244 245 247
323 319 315 315 319 317 304 299 304 307 309 307 303 301 297 283 272 270 267 263 262 263 262 263 263 265 270 259 244 246 255 258 257 254 252 248 230 236 230 243 247 252 258
322 320 311 313 316 310 299 297 303 308 308 302 299 301 301 296 283 277 273 268 264 263 263 262 264 270 272 275 257 245 256 268 263 259 257 251 232 230 228 233 242 246 248
314 316 310 308 309 305 297 295 302 304 301 297 301 302 300 297 287 278 273 273 267 263 266 268 272 276 279 275 265 250 248 261 264 267 268 257 233 225 222 222 222 220 227
309 310 304 301 306 310 305 300 302 298 293 295 298 295 292 293 288 280 270 263 261 260 263 272 276 280 277 275 273 273 266 254 256 260 247 230 227 231 238 225 215 222 231
305 305 302 303 305 307 307 308 305 298 292 295 297 294 291 290 285 273 270 264 265 271 270 274 276 278 279 294 307 292 282 280 279 278 261 249 228 220 223 221 219 219 216
310 310 309 303 302 306 308 308 303 296 295 297 300 298 296 293 291 285 281 278 261 269 273 271 269 277 286 285 279 281 285 282 268 257 242 239 231 225 217 216 219 220 218